STARLINK-1579, 46083

Orbit data source: Space-Track

STARLINK-1579, 46083 is a payload satellite owned by SpaceX/Seattle (US) in LEO that was launched on Fri, 07 Aug 2020 UTC via an FALCON 9 launch vehicle from the Air Force Eastern Test Range (AFETR). Payload-class satellites include a variety of spacecraft equipped with specific instruments for various scientific and technological missions. These include communications satellites like Starlink; space stations such as the ISS; scientific satellites like the Hubble; Earth observation satellites from companies like Planet Labs, Umbra, and HawkEye 360; GPS; miniature CubeSats for education and research; and military/defense satellites.

Loading next visibility...
Identifier
46083, 2020-055BJ
Orbit
LEO
Country
Flag of USUS
Related business
Manufacturer
SpaceX/Seattle
Mission
Operational Commercial Communications
Bus & Motor
STARLINK, Unknown motor
Mass
260 kg wet, ~248 kg dry
Launch date (UTC)
2020-08-07 (5 years ago)
Launch vehicle
FALCON 9
Launch site
Air Force Eastern Test Range (AFETR)
Object type
Payload
Rocket body
Debris
Shape & HBR
Box + 1 Pan, 10.1 m
Radar Cross Section
13.562 m², Large (>1 m²)

Expand to show TLE details & history
Last TLE update: 11 hours ago

TLE from 11 hours ago
0 STARLINK-1579
1 46083U 20055BJ  25306.32993020  .00001504  00000-0  11985-3 0  9994
2 46083  53.0561 308.3465 0001463  88.9298 271.1858 15.06391889290104
Epoch: 2025-11-02T07:55Z
TLE epoch observation values (Epoch: 2025-11-02T07:55:05.969Z)
Latitude
-0.00006°
Longitude
147.72437°
Altitude
548.095 km
Speed
7.589 km/s
True Right ascension
20h 33m 23s
True Declination
0° 00' 00"
Sunlit
Object was in daylight at epoch
Visualization orbit readout
Latitude
Unknown
Longitude
Unknown
Altitude
Unknown
Speed
Unknown
Apparent Right ascension
Unknown
Apparent Declination
Unknown
Sunlit
N/A
Visualization observer readout
Local Sidereal Time
14:25:09
Azimuth
Unknown
Elevation
Unknown
Doppler factor
Unknown
Orbital elements
Apogee altitude
548.52 km
Perigee altitude
546.494 km
Semi-major axis
6,925.644 km
Eccentricity
0.00015
Inclination
53.0561°
RAAN
308.3465°
Arg. of periapsis
88.9298°
True anomaly
271.16904°
Mean anomaly
271.1858°
Eccentric anomaly
271.17742°
Mean motion
3.76576 °/min
Orbital period
95.6 mins
BSTAR
0.00011985
Loading maneuver chart data...
Computing Atmospheric mass density...
Loading historical data...
Loading historical data...
Loading historical data...
Loading historical data...
Loading historical data...
Loading historical data...
Loading historical data...

Documentation

Showing up to 5 results
|